Weather History for Orange, MA

Change the Weather History Date:

Saturday, March 15, 2014

  Actual Average Record
Temperature  
Mean Temperature 40 °F -  
Max Temperature 50 °F 37 °F 57 °F (2009)
Min Temperature 32 °F 19 °F 17 °F (2013)
Degree Days  
Heating Degree Days 24    
Moisture  
Dew Point 27 °F    
Average Humidity 63    
Maximum Humidity 92    
Minimum Humidity 44    
Precipitation  
Precipitation 0.01 in - - ()
Sea Level Pressure  
Sea Level Pressure 29.78 in    
Wind  
Wind Speed 9 mph (SW)    
Max Wind Speed 21 mph    
Max Gust Speed 34 mph    
Visibility 10 miles    
Events Rain    
Averages and records for this station are not official NWS values.
T = Trace of Precipitation, MM = Missing Value Source: NWS Daily Summary

Daily Weather History Graph

Daily Weather History Graph

Search for Another Location

Airport:

Trip Planner

Search our weather history database for the weather conditions in past years. The results will help you decide how hot, cold, wet, or windy it might be!

Date:

Astronomy

Mar. 15, 2014 Rise Set
Actual Time 7:01 AM EDT 6:55 PM EDT
Civil Twilight 6:33 AM EDT 7:23 PM EDT
Nautical Twilight 6:00 AM EDT 7:56 PM EDT
Astronomical Twilight 5:27 AM EDT 8:29 PM EDT
Moon 6:11 PM EDT (3/15) 6:12 AM EDT (3/15)
Length of Visible Light 12h 50m
Length of Day
11h 54m
Waxing Gibbous, 99% of the Moon is Illuminated
Mar 15
Waxing Gibbous
Mar 16
Full
Mar 23
Last Quarter
Mar 30
New
Apr 7
First Quarter

Hourly Weather History & Observations

Time (EDT) Temp. Windchill Dew Point Humidity Pressure Visibility Wind Dir Wind Speed Gust Speed Precip Events Conditions
12:52 AM 34.0 °F 29.8 °F 23.0 °F 64% 29.87 in 10.0 mi South 4.6 mph - N/A   Overcast
1:52 AM 34.0 °F 27.2 °F 24.1 °F 67% 29.84 in 10.0 mi South 8.1 mph - N/A   Mostly Cloudy
2:52 AM 35.1 °F 29.3 °F 25.0 °F 67% 29.81 in 10.0 mi South 6.9 mph - N/A   Overcast
3:52 AM 36.0 °F 29.0 °F 26.1 °F 67% 29.78 in 10.0 mi SSE 9.2 mph - N/A   Overcast
4:52 AM 35.1 °F 30.1 °F 28.9 °F 78% 29.77 in 8.0 mi SSE 5.8 mph - 0.00 in Rain Light Rain
5:52 AM 33.1 °F 26.9 °F 30.9 °F 92% 29.75 in 10.0 mi South 6.9 mph - 0.01 in   Overcast
6:52 AM 34.0 °F 28.0 °F 30.9 °F 89% 29.74 in 10.0 mi SSE 6.9 mph - 0.00 in   Overcast
7:52 AM 34.0 °F - 32.0 °F 92% 29.73 in 10.0 mi Calm Calm - N/A   Mostly Cloudy
8:52 AM 37.0 °F 32.4 °F 32.0 °F 82% 29.72 in 10.0 mi South 5.8 mph - N/A   Mostly Cloudy
9:52 AM 39.0 °F 34.8 °F 32.0 °F 76% 29.71 in 10.0 mi SE 5.8 mph - N/A   Scattered Clouds
10:52 AM 44.1 °F 41.5 °F 30.0 °F 58% 29.69 in 10.0 mi Variable 4.6 mph - N/A   Clear
11:52 AM 48.9 °F - 28.0 °F 44% 29.68 in 10.0 mi WSW 13.8 mph 21.9 mph N/A   Mostly Cloudy
12:52 PM 48.0 °F - 28.0 °F 46% 29.69 in 10.0 mi SW 11.5 mph 18.4 mph N/A   Overcast
1:48 PM 44.6 °F 37.2 °F 30.2 °F 57% 29.70 in 10.0 mi WNW 17.3 mph 25.3 mph 0.00 in Rain Light Rain
1:52 PM 45.0 °F 38.2 °F 30.9 °F 58% 29.71 in 10.0 mi WNW 15.0 mph 23.0 mph 0.00 in Rain Light Rain
2:52 PM 42.1 °F 35.2 °F 30.9 °F 65% 29.74 in 10.0 mi West 12.7 mph 19.6 mph 0.00 in Rain Light Rain
3:52 PM 46.0 °F 40.2 °F 28.9 °F 51% 29.74 in 10.0 mi WNW 12.7 mph 25.3 mph 0.00 in   Scattered Clouds
4:52 PM 45.0 °F 36.9 °F 26.1 °F 48% 29.76 in 10.0 mi West 20.7 mph 31.1 mph N/A   Partly Cloudy
5:52 PM 44.1 °F 36.5 °F 25.0 °F 47% 29.81 in 10.0 mi NW 17.3 mph 34.5 mph N/A   Mostly Cloudy
6:52 PM 42.1 °F 35.2 °F 26.1 °F 53% 29.84 in 10.0 mi WNW 12.7 mph - N/A   Overcast
7:52 PM 39.9 °F 34.5 °F 27.0 °F 60% 29.86 in 10.0 mi West 8.1 mph - N/A   Mostly Cloudy
8:52 PM 39.0 °F 35.7 °F 27.0 °F 62% 29.86 in 10.0 mi Variable 4.6 mph - N/A   Overcast
9:52 PM 37.0 °F 26.7 °F 25.0 °F 62% 29.91 in 10.0 mi WNW 19.6 mph 29.9 mph N/A   Overcast
10:52 PM 35.1 °F 25.9 °F 19.9 °F 54% 29.92 in 10.0 mi West 13.8 mph 28.8 mph N/A   Clear
11:52 PM 32.0 °F 23.0 °F 14.0 °F 48% 29.93 in 10.0 mi West 11.5 mph 24.2 mph N/A   Clear